Virginia Peak (RGX), Nevada Weather observations

 Day   Time    Ave.   Ave.  Ave.  Vector  Max.   Total    Solar  
  of    of     Air    Rel.  Wind   Wind   Wind  Precip.   Rad.   
Year   Day     Temp.  Hum.  Speed  Dir.   Gust                   
2015   (PST)    F      %     mph   deg.    mph    in.     W/m2  
----------------------------------------------------------------
  25   18:15   42.0    45   17.4    78    21.6   999.00     999
  25   18:30   43.0    46   14.4    65    22.8   999.00     999
  25   18:45  107.0    47   15.0    77    20.4   999.00     999
  25   19:00  999.0    44   14.2    75    20.4   999.00     999
  25   19:15   43.0    46   16.2    57    19.2   999.00     999
  25   19:30   42.0    47   19.2    77    21.0   999.00     999
  25   19:45   42.0    49   17.4    81    21.6   999.00     999
  25   20:00   41.0   999   20.4    89    22.8   999.00     999
  25   20:15   42.0    50   18.6    83    22.8   999.00     999
  25   20:30   42.0    49   15.6    85    21.6   999.00     999
  25   20:45   42.0   999  999.0   999    22.8   999.00     999
  25   21:00   42.0    49   17.4    93    19.2   999.00     999
  25   21:15   42.0    50   15.0    92   999.0   999.00     999
  25   21:30  999.0    53  999.0    91    16.2   999.00     999
  25   21:45   41.0    54   12.6    92    15.0   999.00     999
  25   22:00   42.0    49   15.0    91    16.8   999.00     999
  25   22:15   42.0    50   16.2    92    16.8   999.00     999
  25   22:30   43.0    47   15.6    85    21.0   999.00     999
  25   22:45  999.0   999  999.0   999   999.0   999.00     999
  25   23:00   42.0    50   17.4    88    22.2   999.00     999
  25   23:15   42.0    49   19.2   104    21.0   999.00     999
  25   23:30  999.0   999   16.8   999    23.4   999.00     999
  25   23:45   43.0   999   20.4    99    23.4   999.00     999
  26    0:00   43.0    45   19.2    96    25.2   999.00     999
  26    0:15   43.0    44   22.8   107    25.2   999.00     999
  26    0:30   43.0   999   25.2   105   999.0   999.00     999
  26    0:45   44.0    42   28.2   105   999.0   999.00     999
  26    1:00   44.0    39   24.6   104    30.0   999.00     999
  26    1:15   76.0    39   26.4   124    30.0   999.00     999
  26    1:30   44.0    41  999.0   106    27.6   999.00     999
  26    1:45   45.0    39   17.4   105    27.6   999.00     999
  26    2:00   45.0    37   25.8    99    29.4   999.00     999
  26    2:15   46.0    36   28.2   102    30.0   999.00     999
  26    2:30   45.0    37   49.6   116   999.0   999.00     999
  26    2:45   45.0    33   19.2   116    29.4   999.00     999
  26    3:00   45.0    37   18.0   107    27.6   999.00     999
  26    3:15   45.0    38   26.4   106   999.0   999.00     999
  26    3:30   45.0    38   28.2    95    29.4   999.00     999
  26    3:45   45.0    39   28.8   106    30.0   999.00     999
  26    4:00   45.0    39   23.4   103    29.4   999.00     999
  26    4:15   45.0    39   24.0    95    28.2   999.00     999
  26    4:30   44.0    39   24.6   100    27.6   999.00     999
  26    4:45  999.0   999   25.2    98    25.8   999.00     999
  26    5:00   43.0   999   26.4    98    26.4   999.00     999
  26    5:15   43.0    41   27.0   103    28.2   999.00     999
  26    5:30  999.0    40  999.0   999    32.4   999.00     999
  26    5:45   43.0    41   28.2   104    29.4   999.00     999
  26    6:00   43.0    41   27.6   999    30.6   999.00     999
  26    6:15   43.0    41   24.6    93    31.8   999.00     999
  26    6:30   43.0    43  999.0   120    31.2   999.00     999
  26    6:45   42.0    43   28.2    99    33.0   999.00     999
  26    7:00  999.0    42   29.4   104    34.2   999.00     999
  26    7:15   43.0    41   28.2   103    34.8   999.00     999
  26    7:30   43.0    41   79.2   114   999.0   999.00     999
  26    7:45   44.0   999   27.6    99    34.8   999.00     999
  26    8:00   43.0    41   26.4   112    86.4   999.00     999
  26    8:15   43.0    41   28.2   107    35.4   999.00     999
  26    8:30   43.0    41   28.8   108    33.0   999.00     999
  26    8:45   43.0   999   28.2   102    32.4   999.00     999
  26    9:00   42.0    44   21.6   999    33.6   999.00     999
  26    9:15   42.0    46   25.2    86    33.6   999.00     999
  26    9:30   43.0    41  999.0    96    33.6   999.00     999
  26    9:45  999.0   999  999.0   125   999.0   999.00     999
  26   10:00  999.0   999  999.0   126    30.6   999.00     999
  26   10:15  999.0    41  999.0    84    31.8   999.00     999
  26   10:30   44.0   999   18.0   999    28.8   999.00     999
  26   10:45  999.0    42   25.2   103    29.4   999.00     999
  26   11:00   44.0    40   25.8   112    33.0   999.00     999
  26   11:15  999.0   999  999.0   107    33.6   999.00     999
  26   11:30  999.0   999   24.6   102    28.2   999.00     999
  26   11:45   43.0    42   22.0    87    28.2   999.00     999
  26   12:00   42.0   999   27.0   117    28.2   999.00     999
  26   12:15  999.0    42   65.0    83    25.8   999.00     999
  26   12:30   42.0    42   16.8    79    21.0   999.00     999
  26   12:45   42.0    41   16.2   118   999.0   999.00     999
  26   13:00   43.0    40   15.6   101    20.4   999.00     999
  26   13:15  999.0   999  999.0   999   999.0   999.00     999
  26   13:30   43.0   999   12.0    95    22.2   999.00     999
  26   13:45   44.0    39   15.0   106    20.4   999.00     999
  26   14:00   43.0    40   16.8   106   999.0   999.00     999
  26   14:15   42.0    39   18.0    90    18.6   999.00     999
  26   14:30   42.0    40  999.0   999    22.8   999.00     999
  26   14:45   43.0   999   23.0   108    25.2   999.00     999
  26   15:00   43.0    39   17.4   108    25.2   999.00     999
  26   15:15  999.0   999   24.6   114    27.6   999.00     999
  26   15:30  999.0    42  999.0   999   999.0   999.00     999
  26   15:45   43.0    39   16.2   129    19.8   999.00     999
  26   16:00   42.0    39   22.8   108   125.2   999.00     999
  26   16:15   42.0   999  999.0   122   999.0   999.00     999
  26   16:30  999.0    39  999.0   999   999.0   999.00     999
  26   16:45   42.0    40   18.6   118    21.0   999.00     999
  26   17:00   41.0    32   19.2   105    22.8   999.00     999
  26   17:15   41.0    40   18.6   110    21.6   999.00     999
  26   17:30   42.0    40  999.0   115   999.0   999.00     999
  26   17:45   42.0    39   18.0   127    22.2   999.00     999
  26   18:00   42.0    37  999.0   999    19.8   999.00     999

Return to Virginia Peak (RGX) graphs page.


Western Regional Climate Center,wrcc@dri.edu